Tracking 30692 objects as of 16-Jun-2025
HD Live streaming from Space Station
objects crossing your sky now

STARLINK-5009

Track STARLINK-5009 now!
10-day predictions
STARLINK-5009 is classified as:


NORAD ID: 53928
Int'l Code: 2022-119AU
Perigee: 545.9 km
Apogee: 547.9 km
Inclination: 53.2 °
Period: 95.4 minutes
Semi major axis: 6917 km
RCS: Unknown
Launch date: September 24, 2022
Source: United States (US)
Launch site: AIR FORCE EASTERN TEST RANGE (AFETR)
Your satellite tracking list
Your tracking list is empty




NASA's NSSDC Master Catalog

Two Line Element Set (TLE):
1 53928U 22119AU  25166.98754029  .00004124  00000-0  27717-3 0  9994
2 53928  53.2190  61.2904 0001450  92.0852 268.0306 15.08820862151289
Source of the keplerian elements: AFSPC